Showing default

BSAT-3A, 32019

Orbit data source: Space-Track

BSAT-3A, 32019 is a payload satellite owned by BSAT (JP) in GEO that was launched on Tue, 14 Aug 2007 UTC via an ARIANE 5ECA launch vehicle from the French Guiana (FRGUI). Payload-class satellites include a variety of spacecraft equipped with specific instruments for various scientific and technological missions. These include communications satellites like Starlink; space stations such as the ISS; scientific satellites like the Hubble; Earth observation satellites from companies like Planet Labs, Umbra, and HawkEye 360; GPS; miniature CubeSats for education and research; and military/defense satellites.

Loading next visibility...
Identifier
32019, 2007-036B
Orbit
GEO
Last TLE update
12 hours ago
Origin
Manufacturer
LMCSS
Mission
Non-operational Commercial Communications
Bus & Motor
A2100A, LEROS?
Mass
1,967 kg wet, 930 kg dry
Launch date (UTC)
2007-08-14 (18 years ago)
Launch vehicle
ARIANE 5ECA
Launch site
French Guiana (FRGUI)
Object type
Payload
Rocket body
Debris
Shape & HBR
Box + 2 Pan, 14.7 m
Radar Cross Section
15.563 m², Large (>1 m²)

Expand to show TLE details & history

TLE from 12 hours ago
0 BSAT-3A
1 32019U 07036B   25186.53300601 -.00000001  00000-0  00000-0 0  9993
2 32019   0.7569  99.2570 0004094  63.0267 153.2881  0.99142622 47034
Epoch: 2025-07-05T12:47Z
TLE epoch observation values (Epoch: 2025-07-05T12:47:31.719Z)
Latitude
-0.46743°
Longitude
-160.05773°
Altitude
36,121.22 km
Speed
3.062 km/s
True Right ascension
21h 02m 22s
True Declination
0° 28' 01"
Sunlit
Object was in daylight at epoch
Visualization orbit readout
Latitude
0.51693°
Longitude
24.676°
Altitude
36,089.399 km
Speed
3.064 km/s
Apparent Right ascension
08h 57m 43s
Apparent Declination
-5° 15' 57"
Sunlit
Object is in daylight
Visualization observer readout
Local Sidereal Time
13:09:38
Azimuth
247.876° W
Elevation
16.742°
Doppler factor
1
Orbital elements
Apogee altitude
36,124.597 km
Perigee altitude
36,089.81 km
Semi-major axis
42,485.34 km
Eccentricity
0.00041
Inclination
0.7569°
RAAN
99.257°
Arg. of periapsis
63.0267°
True anomaly
Unknown
Mean anomaly
153.2881°
Eccentric anomaly
Unknown
Mean motion
0.24785 °/min
Orbital period
1,452.51 mins
BSTAR
0
Loading historical data...
32019 neighbors
Loading maneuver chart data...
Loading SW <> Apogee altitude chart data...
Loading historical data...
Loading historical data...
Loading historical data...
Loading historical data...
Loading historical data...
Loading historical data...
Loading historical data...
Other satellites on launch #36 in the year 2007 (2007-08-14 UTC)

BSAT-3A Visibility forecast

Observer location: undefined°, undefined°

Span
Click to sort rows by Start time (UTC) header in descending order
Start Az.
Max El. time (UTC)
Max El. Az.
Max El.
End time (UTC)
End Az.
1440 mins2025-07-06 01:12:59.789Z247.861° W2025-07-06 01:14:59.789Z247.869° W16.063°2025-07-07 01:12:59.789Z250.928° W
|